period_start,C,m1,H,J0,J1,J2,J3,J4,J5,JA,JB,JC,JD,JJ,JK,JN,#
2016-10-31 00:01:17,0.01,0.84,0.00,15.32,20.47,24.19,14.93,49.45,1008.80,2060.30,3232.99,2938.14,3302.45,599.91,607.05,31.77,0000 0000 0000 0000 000000
2016-10-31 00:06:19,-0.00,0.84,0.00,15.34,20.49,24.22,14.90,49.40,1008.80,2060.13,3232.90,2938.01,3302.05,599.71,606.82,31.82,0000 0000 0000 0000 000000
2016-10-31 00:11:20,0.00,0.84,0.00,15.38,20.51,24.21,14.82,49.09,1008.80,2060.10,3232.58,2938.00,3302.00,599.22,606.29,31.87,0000 0000 0000 0000 000000
2016-10-31 00:16:21,0.00,0.84,0.00,15.39,20.52,24.24,14.92,49.59,1008.80,2060.03,3232.04,2937.97,3301.98,599.65,606.71,31.92,0000 0000 0000 0000 000000
2016-10-31 00:21:23,0.01,0.84,0.00,15.38,20.54,24.29,14.84,49.39,1008.80,2060.01,3232.01,2937.80,3301.76,599.98,607.05,31.98,0000 0000 0000 0000 000000
2016-10-31 00:26:24,0.02,0.84,0.00,15.39,20.56,24.29,14.92,49.87,1008.77,2060.01,3231.99,2937.14,3301.09,599.67,606.69,32.03,0000 0000 0000 0000 000000
2016-10-31 00:31:25,0.00,0.84,0.00,15.44,20.58,24.32,14.95,49.42,1008.69,2060.00,3231.93,2937.01,3301.00,599.93,606.81,32.08,0000 0000 0000 0000 000000
2016-10-31 00:36:26,0.01,0.84,0.00,15.46,20.59,24.34,14.90,49.36,1008.58,2060.00,3231.28,2937.00,3300.97,600.21,607.03,32.13,0000 0000 0000 0000 000000
2016-10-31 00:41:27,0.01,0.85,0.00,15.46,20.62,24.31,14.86,49.21,1008.45,2059.99,3231.01,2936.97,3300.57,600.12,606.76,32.18,0000 0000 0000 0000 000000
2016-10-31 00:46:29,0.02,0.85,0.00,15.46,20.63,24.35,14.88,49.38,1008.39,2059.99,3230.99,2936.52,3300.05,600.03,606.73,32.23,0000 0000 0000 0000 000000
2016-10-31 00:51:30,0.01,0.85,0.00,15.52,20.64,24.38,14.86,49.51,1008.39,2059.97,3230.69,2936.08,3300.00,599.67,606.18,32.28,0000 0000 0000 0000 000000
2016-10-31 00:56:32,0.01,0.85,0.00,15.54,20.67,24.40,14.94,49.58,1008.34,2059.94,3230.10,2936.00,3299.82,600.27,606.73,32.33,0000 0000 0000 0000 000000
2016-10-31 01:01:33,0.01,0.85,0.00,15.58,20.69,24.43,14.83,49.53,1008.32,2059.90,3229.98,2935.99,3299.30,600.26,606.63,32.38,0000 0000 0000 0000 000000
2016-10-31 01:06:34,-0.02,0.85,0.00,15.54,20.70,24.42,14.95,49.79,1008.32,2059.64,3229.84,2935.79,3299.01,599.98,606.38,32.43,0000 0000 0000 0000 000000
2016-10-31 01:11:36,0.01,0.85,0.00,15.58,20.72,24.43,14.95,49.52,1008.31,2059.44,3229.15,2935.15,3298.95,600.19,606.52,32.48,0000 0000 0000 0000 000000
2016-10-31 01:16:37,-0.01,0.85,0.00,15.61,20.74,24.46,14.84,49.60,1008.31,2059.15,3229.00,2935.01,3298.50,599.79,606.20,32.53,0000 0000 0000 0000 000000
2016-10-31 01:21:39,-0.00,0.85,0.00,15.63,20.76,24.48,14.94,49.82,1008.26,2059.03,3229.00,2934.98,3298.04,599.93,606.48,32.58,0000 0000 0000 0000 000000
2016-10-31 01:26:40,0.01,0.85,0.00,15.68,20.78,24.50,14.84,49.63,1008.10,2059.01,3228.66,2934.79,3297.99,599.93,605.95,32.63,0000 0000 0000 0000 000000
2016-10-31 01:31:41,0.03,0.85,0.00,15.66,20.79,24.54,14.90,49.77,1007.98,2059.00,3228.03,2934.08,3297.55,600.19,606.19,32.68,0000 0000 0000 0000 000000
2016-10-31 01:36:42,0.00,0.85,0.00,15.69,20.82,24.55,14.94,49.82,1007.97,2059.00,3227.99,2934.01,3297.10,600.08,605.96,32.73,0000 0000 0000 0000 000000
2016-10-31 01:41:43,0.00,0.85,0.00,15.75,20.84,24.58,14.91,50.00,1007.92,2059.00,3227.93,2934.00,3297.00,599.79,605.56,32.78,0000 0000 0000 0000 000000
2016-10-31 01:46:45,0.02,0.85,0.00,15.76,20.86,24.61,15.00,49.63,1008.01,2059.00,3227.41,2933.90,3296.97,600.28,606.09,32.83,0000 0000 0000 0000 000000
2016-10-31 01:51:46,0.02,0.85,0.00,15.77,20.88,24.65,14.85,49.56,1007.89,2058.99,3227.01,2933.44,3296.49,599.69,605.37,32.88,0000 0000 0000 0000 000000
2016-10-31 01:56:47,0.01,0.85,0.00,15.79,20.90,24.64,14.81,49.52,1007.85,2058.99,3226.99,2933.04,3296.04,599.91,605.40,32.93,0000 0000 0000 0000 000000
2016-10-31 02:01:48,0.01,0.85,0.00,15.81,20.92,24.66,14.86,49.45,1007.87,2058.97,3226.62,2932.99,3295.99,599.85,605.40,32.99,0000 0000 0000 0000 000000
2016-10-31 02:06:49,0.02,0.85,0.00,15.82,20.94,24.68,14.87,49.86,1007.90,2058.96,3226.10,2932.89,3295.63,599.71,605.31,33.04,0000 0000 0000 0000 000000
2016-10-31 02:11:51,0.01,0.86,0.00,15.83,20.96,24.72,14.85,49.27,1008.00,2058.83,3226.00,2932.24,3295.08,599.78,605.42,33.09,0000 0000 0000 0000 000000
2016-10-31 02:16:52,-0.02,0.86,0.00,15.85,20.98,24.72,14.95,49.63,1008.00,2058.65,3225.95,2932.02,3294.99,599.82,605.36,33.14,0000 0000 0000 0000 000000
2016-10-31 02:21:53,-0.01,0.85,0.00,15.84,20.99,24.72,14.89,49.52,1007.88,2058.36,3225.40,2932.00,3294.67,599.91,605.55,33.19,0000 0000 0000 0000 000000
2016-10-31 02:26:54,0.00,0.86,0.00,15.86,21.02,24.74,14.93,49.56,1007.85,2058.24,3225.02,2931.95,3294.09,599.92,605.42,33.24,0000 0000 0000 0000 000000
2016-10-31 02:31:55,0.01,0.85,0.00,15.85,21.04,24.79,14.85,49.58,1007.93,2058.10,3224.98,2931.59,3294.00,599.72,605.28,33.29,0000 0000 0000 0000 000000
2016-10-31 02:36:57,0.01,0.86,0.00,15.87,21.06,24.80,15.00,49.86,1008.13,2058.02,3224.71,2931.05,3293.84,600.80,606.47,33.34,0000 0000 0000 0000 000000
2016-10-31 02:41:58,0.02,0.86,0.00,15.87,21.08,24.80,14.88,49.48,1008.26,2058.00,3224.05,2931.00,3293.13,599.97,605.63,33.39,0000 0000 0000 0000 000000
2016-10-31 02:46:59,0.00,0.86,0.00,15.94,21.09,24.85,14.88,49.51,1008.31,2058.00,3224.00,2930.98,3293.01,600.54,606.17,33.44,0000 0000 0000 0000 000000
2016-10-31 02:52:00,0.00,0.86,0.00,15.98,21.12,24.84,14.85,49.33,1008.29,2058.00,3223.99,2930.92,3292.99,600.04,605.54,33.49,0000 0000 0000 0000 000000
2016-10-31 02:57:01,0.02,0.86,0.00,16.02,21.14,24.85,14.88,49.63,1008.23,2057.99,3223.89,2930.24,3292.89,599.74,605.03,33.54,0000 0000 0000 0000 000000
2016-10-31 03:02:03,0.03,0.86,0.00,16.07,21.16,24.89,14.92,49.57,1008.30,2057.98,3223.18,2930.01,3292.15,600.86,606.12,33.59,0000 0000 0000 0000 000000
2016-10-31 03:07:04,0.00,0.86,0.00,16.08,21.17,24.92,14.82,49.70,1008.30,2057.93,3223.00,2929.98,3291.99,599.58,604.98,33.64,0000 0000 0000 0000 000000
2016-10-31 03:12:05,-0.01,0.86,0.00,16.12,21.19,24.96,14.82,49.52,1008.28,2057.64,3222.84,2929.74,3291.81,599.80,605.05,33.69,0000 0000 0000 0000 000000
2016-10-31 03:17:06,0.02,0.86,0.00,16.12,21.21,24.96,14.86,49.71,1008.08,2057.58,3222.18,2929.20,3291.21,599.27,604.53,33.74,0000 0000 0000 0000 000000
2016-10-31 03:22:07,-0.01,0.86,0.00,16.16,21.23,25.01,14.83,49.80,1007.94,2057.17,3222.01,2929.01,3291.00,599.89,604.80,33.79,0000 0000 0000 0000 000000
2016-10-31 03:27:09,-0.01,0.86,0.00,16.17,21.25,25.03,14.95,49.83,1007.90,2057.06,3221.92,2929.00,3290.93,600.07,605.05,33.84,0000 0000 0000 0000 000000
2016-10-31 03:32:10,0.03,0.86,0.00,16.19,21.27,25.03,14.85,49.54,1008.00,2057.01,3221.15,2928.90,3290.19,600.46,605.36,33.89,0000 0000 0000 0000 000000
2016-10-31 03:37:11,0.01,0.86,0.00,16.23,21.29,25.04,14.89,49.88,1007.93,2057.00,3221.01,2928.45,3290.03,600.27,605.05,33.94,0000 0000 0000 0000 000000
2016-10-31 03:42:13,0.00,0.86,0.00,16.24,21.32,25.08,14.99,49.73,1008.11,2057.00,3221.00,2928.05,3290.00,600.51,605.35,34.00,0000 0000 0000 0000 000000
2016-10-31 03:47:14,0.00,0.86,0.00,16.24,21.33,25.10,14.81,49.72,1007.99,2057.00,3220.87,2928.00,3289.89,600.04,604.83,34.05,0000 0000 0000 0000 000000
2016-10-31 03:52:15,0.02,0.86,0.00,16.26,21.36,25.11,14.96,49.86,1008.02,2056.99,3220.07,2928.00,3289.15,600.54,605.30,34.10,0000 0000 0000 0000 000000
2016-10-31 03:57:16,0.00,0.86,0.00,16.30,21.38,25.12,14.84,49.67,1008.30,2056.98,3220.00,2927.95,3289.00,599.94,604.72,34.15,0000 0000 0000 0000 000000
2016-10-31 04:02:17,0.02,0.86,0.00,16.31,21.40,25.15,14.75,49.42,1008.31,2056.97,3219.98,2927.47,3288.98,599.21,603.96,34.20,0000 0000 0000 0000 000000
2016-10-31 04:07:18,0.02,0.86,0.00,16.34,21.42,25.17,14.98,49.52,1008.31,2056.92,3219.54,2927.08,3288.57,600.22,605.07,34.25,0000 0000 0000 0000 000000
2016-10-31 04:12:20,-0.02,0.87,0.00,16.40,21.44,25.21,14.81,49.52,1008.32,2056.63,3219.01,2927.00,3288.02,599.87,604.54,34.30,0000 0000 0000 0000 000000
2016-10-31 04:17:21,-0.01,0.86,0.00,16.39,21.46,25.23,14.84,49.58,1008.32,2056.45,3218.81,2926.91,3287.96,599.91,604.57,34.35,0000 0000 0000 0000 000000
2016-10-31 04:22:22,0.07,0.87,0.00,16.44,21.48,25.25,14.86,49.88,1008.32,2056.47,3218.05,2926.11,3287.15,600.24,604.74,34.40,0000 0000 0000 0000 000000
2016-10-31 04:27:23,-0.03,0.87,0.00,16.46,21.50,25.29,14.84,49.58,1008.32,2056.15,3217.97,2925.99,3286.99,600.17,604.67,34.45,0000 0000 0000 0000 000000
2016-10-31 04:32:25,0.01,0.87,0.00,16.46,21.52,25.29,14.85,49.38,1008.32,2056.03,3217.52,2925.94,3286.74,599.78,604.24,34.50,0000 0000 0000 0000 000000
2016-10-31 04:37:26,0.03,0.87,0.00,16.45,21.54,25.31,14.84,49.34,1008.31,2056.01,3217.02,2925.41,3286.08,599.68,604.21,34.55,0000 0000 0000 0000 000000
2016-10-31 04:42:27,0.01,0.87,0.00,16.45,21.57,25.30,14.73,49.07,1008.31,2056.01,3216.95,2925.07,3286.00,599.62,604.24,34.60,0000 0000 0000 0000 000000
2016-10-31 04:47:28,0.01,0.87,0.00,16.52,21.59,25.34,14.78,49.51,1008.31,2056.01,3216.36,2925.00,3285.84,600.20,604.65,34.65,0000 0000 0000 0000 000000
2016-10-31 04:52:30,0.01,0.87,0.00,16.53,21.61,25.38,14.93,49.50,1008.31,2056.00,3216.01,2924.95,3285.10,599.53,603.89,34.70,0000 0000 0000 0000 000000
2016-10-31 04:57:32,0.00,0.87,0.00,16.54,21.63,25.38,14.89,49.58,1008.33,2055.99,3216.00,2924.72,3285.01,599.86,604.22,34.75,0000 0000 0000 0000 000000
2016-10-31 05:02:33,0.01,0.87,0.00,16.56,21.65,25.40,14.90,49.49,1008.32,2055.97,3215.98,2924.06,3284.94,600.14,604.57,34.80,0000 0000 0000 0000 000000
2016-10-31 05:07:34,0.01,0.87,0.00,16.59,21.68,25.37,14.77,49.36,1008.32,2055.86,3215.56,2924.01,3284.30,599.85,604.14,34.85,0000 0000 0000 0000 000000
2016-10-31 05:12:35,-0.02,0.87,0.00,16.62,21.69,25.43,14.81,49.59,1008.32,2055.50,3215.03,2923.98,3284.01,599.35,603.52,34.90,0000 0000 0000 0000 000000
2016-10-31 05:17:36,-0.02,0.87,0.00,16.63,21.72,25.43,14.81,49.49,1008.32,2055.13,3214.96,2923.56,3283.93,599.98,604.10,34.95,0000 0000 0000 0000 000000
2016-10-31 05:22:37,0.03,0.87,0.00,16.69,21.74,25.48,14.81,49.36,1008.32,2055.04,3214.35,2923.06,3283.27,599.84,603.85,35.00,0000 0000 0000 0000 000000
2016-10-31 05:27:38,-0.00,0.87,0.00,16.70,21.76,25.50,14.81,49.29,1008.32,2055.01,3214.01,2923.00,3283.00,599.80,603.80,35.06,0000 0000 0000 0000 000000
2016-10-31 05:32:40,0.01,0.87,0.00,16.71,21.78,25.51,14.79,49.51,1008.32,2055.00,3214.00,2922.95,3282.81,600.06,603.77,35.11,0000 0000 0000 0000 000000
2016-10-31 05:37:41,0.04,0.87,0.00,16.72,21.79,25.54,14.89,49.33,1008.32,2055.00,3213.59,2922.37,3282.14,600.66,604.62,35.16,0000 0000 0000 0000 000000
2016-10-31 05:42:43,0.01,0.87,0.00,16.77,21.82,25.54,14.93,49.53,1008.35,2055.00,3213.02,2922.03,3282.00,600.66,604.48,35.21,0000 0000 0000 0000 000000
2016-10-31 05:47:44,0.00,0.87,0.00,16.78,21.84,25.56,14.84,49.29,1008.46,2054.99,3213.00,2922.00,3281.94,599.72,603.67,35.26,0000 0000 0000 0000 000000
2016-10-31 05:52:45,0.02,0.88,0.00,16.80,21.86,25.59,14.88,49.33,1008.39,2054.98,3212.50,2921.98,3281.33,600.23,604.09,35.31,0000 0000 0000 0000 000000
2016-10-31 05:57:46,0.01,0.88,0.00,16.81,21.88,25.63,14.88,49.53,1008.32,2054.95,3212.06,2921.68,3281.01,600.22,604.00,35.36,0000 0000 0000 0000 000000
2016-10-31 06:02:48,0.01,0.88,0.00,16.80,21.91,25.63,14.91,49.22,1008.32,2054.95,3211.94,2921.10,3280.93,600.11,604.09,35.41,0000 0000 0000 0000 000000
2016-10-31 06:07:49,0.01,0.88,0.00,16.86,21.92,25.68,14.87,49.33,1008.35,2054.82,3211.17,2921.00,3280.20,600.01,603.73,35.46,0000 0000 0000 0000 000000
2016-10-31 06:12:51,-0.03,0.88,0.00,16.84,21.94,25.68,14.87,49.48,1008.36,2054.49,3210.99,2920.91,3280.00,599.92,603.59,35.51,0000 0000 0000 0000 000000
2016-10-31 06:17:52,0.03,0.88,0.00,16.85,21.97,25.68,14.68,48.83,1008.33,2054.18,3210.35,2920.17,3279.48,599.44,603.26,35.56,0000 0000 0000 0000 000000
2016-10-31 06:22:53,-0.00,0.88,0.00,16.87,21.99,25.71,14.78,49.26,1008.32,2054.07,3210.01,2920.01,3279.01,599.67,603.42,35.61,0000 0000 0000 0000 000000
2016-10-31 06:27:54,0.00,0.88,0.00,16.91,22.01,25.72,14.81,49.18,1008.32,2054.05,3209.97,2920.00,3278.97,599.62,603.20,35.66,0000 0000 0000 0000 000000
2016-10-31 06:32:56,0.04,0.88,0.00,16.92,22.02,25.74,14.87,49.28,1008.33,2054.00,3209.23,2919.68,3278.18,600.05,603.61,35.71,0000 0000 0000 0000 000000
2016-10-31 06:37:57,0.01,0.88,0.00,16.97,22.04,25.77,14.90,49.54,1008.34,2054.01,3209.01,2919.14,3278.00,600.15,603.72,35.76,0000 0000 0000 0000 000000
2016-10-31 06:42:58,0.00,0.88,0.00,16.94,22.07,25.79,14.80,49.68,1008.34,2054.00,3209.00,2919.01,3277.94,599.62,603.46,35.81,0000 0000 0000 0000 000000
2016-10-31 06:47:59,0.00,0.88,0.00,16.97,22.08,25.80,14.81,49.45,1008.55,2054.00,3208.99,2919.00,3277.65,599.85,603.37,35.86,0000 0000 0000 0000 000000
2016-10-31 06:53:01,0.01,0.88,0.00,17.00,22.10,25.82,14.81,49.35,1008.78,2053.99,3208.64,2918.98,3277.07,600.29,603.90,35.91,0000 0000 0000 0000 000000
2016-10-31 06:58:02,0.01,0.88,0.00,17.01,22.12,25.86,14.85,49.59,1008.76,2053.97,3208.06,2918.73,3277.00,599.86,603.49,35.96,0000 0000 0000 0000 000000
2016-10-31 07:03:04,0.01,0.88,0.00,17.01,22.13,25.86,14.81,49.65,1008.78,2053.96,3208.00,2918.24,3276.96,599.99,603.65,36.01,0000 0000 0000 0000 000000
2016-10-31 07:08:05,0.01,0.88,0.00,17.04,22.15,25.86,14.76,49.26,1008.80,2053.93,3207.92,2918.04,3276.37,599.93,603.54,36.06,0000 0000 0000 0000 000000
2016-10-31 07:13:06,-0.02,0.88,0.00,17.06,22.17,25.86,14.83,49.32,1008.80,2053.48,3207.13,2918.00,3276.01,599.91,603.45,36.12,0000 0000 0000 0000 000000
2016-10-31 07:18:07,-0.01,0.88,0.00,17.03,22.18,25.92,14.76,49.27,1008.79,2053.20,3206.99,2917.98,3275.96,599.82,603.39,36.17,0000 0000 0000 0000 000000
2016-10-31 07:23:08,0.01,0.88,0.00,17.04,22.19,25.93,14.86,49.42,1008.80,2053.05,3206.81,2917.86,3275.42,600.32,604.04,36.22,0000 0000 0000 0000 000000
2016-10-31 07:28:10,0.03,0.88,0.00,17.08,22.22,25.91,14.79,49.44,1008.80,2053.03,3206.20,2917.33,3275.03,599.99,603.51,36.27,0000 0000 0000 0000 000000
2016-10-31 07:33:11,0.00,0.88,0.00,17.11,22.23,25.92,14.80,49.33,1008.80,2053.00,3206.01,2917.05,3275.00,599.87,603.30,36.32,0000 0000 0000 0000 000000
2016-10-31 07:38:12,0.00,0.88,0.00,17.13,22.24,25.95,14.87,49.58,1008.80,2053.00,3205.98,2917.00,3274.82,600.53,603.88,36.37,0000 0000 0000 0000 000000
2016-10-31 07:43:13,0.02,0.88,0.00,17.14,22.26,25.97,14.80,49.56,1008.80,2053.00,3205.41,2916.98,3274.09,600.21,603.70,36.42,0000 0000 0000 0000 000000
2016-10-31 07:48:15,-0.00,0.89,0.00,17.13,22.28,26.00,14.78,49.69,1008.80,2052.99,3205.02,2916.94,3274.00,600.24,603.55,36.47,0000 0000 0000 0000 000000
2016-10-31 07:53:16,0.01,0.89,0.00,17.16,22.29,26.00,14.85,49.77,1008.80,2052.97,3205.00,2916.56,3273.99,600.18,603.52,36.52,0000 0000 0000 0000 000000
2016-10-31 07:58:18,0.02,0.89,0.00,17.18,22.31,26.01,14.79,49.64,1008.80,2052.96,3204.86,2916.10,3273.49,599.78,603.10,36.57,0000 0000 0000 0000 000000
2016-10-31 08:03:19,0.02,0.89,0.00,17.21,22.33,26.05,14.80,49.81,1008.80,2052.96,3204.20,2916.00,3273.04,599.96,603.17,36.62,0000 0000 0000 0000 000000
2016-10-31 08:08:20,-0.01,0.89,0.00,17.19,22.34,26.03,14.76,49.68,1008.80,2052.84,3204.01,2916.00,3273.00,599.58,602.89,36.67,0000 0000 0000 0000 000000
2016-10-31 08:13:21,-0.01,0.89,0.00,17.22,22.36,26.06,14.73,49.48,1008.80,2052.75,3203.90,2915.98,3272.96,599.97,603.13,36.72,0000 0000 0000 0000 000000
2016-10-31 08:18:22,-0.01,0.89,0.00,17.22,22.37,26.08,14.90,49.77,1008.78,2052.36,3203.14,2915.76,3272.29,599.93,603.21,36.77,0000 0000 0000 0000 000000
2016-10-31 08:23:24,0.01,0.89,0.00,17.20,22.39,26.12,14.79,49.26,1008.80,2052.20,3203.01,2915.30,3272.01,600.04,603.29,36.82,0000 0000 0000 0000 000000
2016-10-31 08:28:25,-0.00,0.89,0.00,17.22,22.40,26.11,14.88,49.61,1008.83,2052.12,3203.00,2915.08,3272.00,600.53,603.64,36.87,0000 0000 0000 0000 000000
2016-10-31 08:33:27,-0.00,0.89,0.00,17.24,22.42,26.13,14.85,49.45,1008.80,2052.06,3202.92,2915.01,3271.97,600.23,603.53,36.92,0000 0000 0000 0000 000000
2016-10-31 08:38:28,0.02,0.89,0.00,17.23,22.43,26.12,14.85,49.36,1008.81,2052.05,3202.24,2915.00,3271.61,599.92,603.12,36.97,0000 0000 0000 0000 000000
2016-10-31 08:43:29,0.00,0.89,0.00,17.25,22.44,26.12,14.85,49.45,1008.86,2052.02,3202.01,2914.97,3271.05,600.08,603.36,37.02,0000 0000 0000 0000 000000
2016-10-31 08:48:30,0.01,0.89,0.00,17.27,22.46,26.15,14.88,49.38,1008.81,2052.00,3201.94,2914.71,3270.99,599.88,603.01,37.07,0000 0000 0000 0000 000000
2016-10-31 08:53:31,0.03,0.89,0.00,17.26,22.47,26.19,14.83,49.29,1008.81,2051.99,3201.18,2914.12,3270.68,599.91,603.06,37.13,0000 0000 0000 0000 000000
2016-10-31 08:58:33,0.00,0.89,0.00,17.32,22.48,26.16,14.91,49.38,1008.87,2051.99,3201.01,2914.04,3270.13,600.52,603.53,37.18,0000 0000 0000 0000 000000
2016-10-31 09:03:34,0.00,0.89,0.00,17.31,22.49,26.18,14.84,49.34,1008.81,2051.99,3200.98,2914.00,3270.01,599.60,602.71,37.23,0000 0000 0000 0000 000000
2016-10-31 09:08:35,0.01,0.89,0.00,17.32,22.51,26.19,14.83,49.31,1008.82,2051.98,3200.38,2913.99,3270.00,600.06,603.09,37.28,0000 0000 0000 0000 000000
2016-10-31 09:13:36,0.00,0.89,0.00,17.30,22.52,26.22,14.79,49.19,1008.88,2051.98,3200.09,2913.98,3269.93,599.62,602.73,37.33,0000 0000 0000 0000 000000
2016-10-31 09:18:38,0.02,0.89,0.00,17.28,22.54,26.20,14.76,49.08,1008.83,2051.98,3200.01,2913.85,3269.38,599.65,602.54,37.38,0000 0000 0000 0000 000000
2016-10-31 09:23:39,0.02,0.89,0.00,17.29,22.54,26.24,14.79,49.24,1008.82,2051.97,3199.92,2913.23,3269.02,600.25,603.30,37.43,0000 0000 0000 0000 000000
2016-10-31 09:28:41,0.00,0.89,0.00,17.28,22.56,26.21,14.87,49.24,1008.87,2051.87,3199.37,2913.02,3268.99,600.46,603.56,37.48,0000 0000 0000 0000 000000
2016-10-31 09:33:42,0.01,0.90,0.00,17.34,22.57,26.25,14.83,49.30,1008.81,2051.90,3199.04,2913.00,3268.84,599.96,602.99,37.53,0000 0000 0000 0000 000000
2016-10-31 09:38:43,-0.00,0.90,0.00,17.34,22.59,26.23,14.73,49.13,1008.80,2051.73,3199.00,2913.00,3268.14,599.87,602.75,37.58,0000 0000 0000 0000 000000
2016-10-31 09:43:44,-0.02,0.89,0.00,17.33,22.59,26.26,14.85,49.44,1008.80,2051.55,3198.97,2912.98,3268.01,600.07,603.05,37.63,0000 0000 0000 0000 000000
2016-10-31 09:48:46,0.01,0.89,0.00,17.35,22.61,26.25,14.68,49.05,1008.79,2051.50,3198.74,2912.96,3268.00,599.89,602.87,37.68,0000 0000 0000 0000 000000
2016-10-31 09:53:47,0.01,0.90,0.00,17.35,22.62,26.29,14.89,49.27,1008.80,2051.36,3198.20,2912.65,3267.89,599.90,602.95,37.73,0000 0000 0000 0000 000000
2016-10-31 09:58:49,0.01,0.90,0.00,17.36,22.62,26.27,14.89,49.38,1008.81,2051.11,3198.00,2912.11,3267.24,600.14,603.03,37.78,0000 0000 0000 0000 000000
2016-10-31 10:03:50,0.00,0.90,0.00,17.35,22.64,26.31,14.67,49.15,1008.80,2051.10,3197.95,2912.02,3267.01,599.65,602.58,37.83,0000 0000 0000 0000 000000
2016-10-31 10:08:51,0.01,0.90,0.00,17.34,22.64,26.31,14.91,49.34,1008.82,2051.04,3197.38,2912.00,3267.00,600.27,603.30,37.88,0000 0000 0000 0000 000000
2016-10-31 10:13:53,0.00,0.90,0.00,17.34,22.65,26.33,14.88,49.25,1008.82,2051.04,3197.06,2912.00,3266.95,600.07,603.03,37.93,0000 0000 0000 0000 000000
2016-10-31 10:18:54,0.01,0.90,0.00,17.36,22.67,26.31,14.68,48.94,1008.83,2051.03,3197.00,2912.00,3266.45,599.15,602.23,37.98,0000 0000 0000 0000 000000
2016-10-31 10:23:55,0.00,0.90,0.00,17.36,22.67,26.33,14.80,49.33,1008.84,2051.01,3196.94,2911.96,3266.01,599.95,603.04,38.03,0000 0000 0000 0000 000000
2016-10-31 10:28:57,0.00,0.90,0.00,17.35,22.67,26.34,14.85,49.28,1008.87,2051.01,3196.77,2911.92,3266.00,600.08,603.03,38.09,0000 0000 0000 0000 000000
2016-10-31 10:33:58,0.02,0.90,0.00,17.36,22.69,26.34,14.82,49.51,1008.87,2051.01,3196.10,2911.48,3266.00,600.12,602.99,38.14,0000 0000 0000 0000 000000
2016-10-31 10:38:59,0.01,0.90,0.00,17.39,22.69,26.30,14.81,49.40,1008.83,2051.00,3196.01,2911.20,3265.94,600.00,602.93,38.19,0000 0000 0000 0000 000000
2016-10-31 10:44:00,0.01,0.90,0.00,17.36,22.70,26.33,14.82,49.49,1008.85,2051.00,3196.00,2911.08,3265.63,599.91,602.88,38.24,0000 0000 0000 0000 000000
2016-10-31 10:49:01,0.00,0.90,0.00,17.34,22.71,26.31,14.88,49.33,1008.82,2051.00,3195.92,2911.02,3265.07,599.70,602.50,38.29,0000 0000 0000 0000 000000
2016-10-31 10:54:02,0.01,0.90,0.00,17.37,22.72,26.32,14.78,49.15,1008.81,2051.00,3195.19,2911.00,3265.00,599.59,602.42,38.34,0000 0000 0000 0000 000000
2016-10-31 10:59:04,0.00,0.90,0.00,17.39,22.72,26.33,14.82,49.39,1008.81,2051.00,3195.03,2910.99,3265.00,599.33,602.20,38.39,0000 0000 0000 0000 000000
2016-10-31 11:04:05,0.00,0.90,0.00,17.43,22.72,26.37,14.82,49.20,1008.81,2051.00,3195.00,2910.98,3264.96,600.28,603.07,38.44,0000 0000 0000 0000 000000
2016-10-31 11:09:06,0.01,0.90,0.00,17.43,22.74,26.37,14.66,49.08,1008.81,2050.99,3194.99,2910.97,3264.62,599.28,602.12,38.49,0000 0000 0000 0000 000000
2016-10-31 11:14:08,0.02,0.90,0.00,17.44,22.74,26.38,14.82,49.41,1008.82,2050.99,3194.72,2910.73,3264.08,600.41,603.20,38.54,0000 0000 0000 0000 000000
2016-10-31 11:19:09,0.02,0.90,0.00,17.47,22.74,26.39,14.87,49.31,1008.83,2050.97,3194.10,2910.23,3264.00,600.12,602.87,38.59,0000 0000 0000 0000 000000
2016-10-31 11:24:10,0.00,0.90,0.00,17.45,22.75,26.40,14.72,49.38,1008.82,2050.98,3194.00,2910.04,3263.98,599.35,602.11,38.64,0000 0000 0000 0000 000000
2016-10-31 11:29:11,0.00,0.90,0.00,17.48,22.76,26.41,14.84,49.76,1008.82,2050.98,3193.99,2910.02,3263.96,600.02,602.72,38.69,0000 0000 0000 0000 000000
2016-10-31 11:34:12,0.01,0.90,0.00,17.49,22.77,26.42,14.76,49.63,1008.80,2050.95,3193.55,2910.00,3263.33,599.88,602.75,38.74,0000 0000 0000 0000 000000
2016-10-31 11:39:13,0.01,0.90,0.00,17.49,22.77,26.42,14.80,49.58,1008.81,2050.93,3193.09,2910.00,3263.03,600.15,602.94,38.79,0000 0000 0000 0000 000000
2016-10-31 11:44:14,-0.00,0.91,0.00,17.46,22.77,26.44,14.80,49.33,1008.80,2050.87,3193.00,2909.97,3263.00,599.43,602.15,38.84,0000 0000 0000 0000 000000
2016-10-31 11:49:16,0.00,0.90,0.00,17.46,22.78,26.42,14.71,49.30,1008.80,2050.80,3192.94,2909.96,3263.00,599.80,602.58,38.89,0000 0000 0000 0000 000000
2016-10-31 11:54:17,0.02,0.91,0.00,17.45,22.79,26.41,14.74,49.16,1008.80,2050.88,3192.29,2909.83,3262.96,599.68,602.42,38.94,0000 0000 0000 0000 000000
2016-10-31 11:59:18,0.01,0.91,0.00,17.45,22.79,26.45,14.79,49.58,1008.80,2050.78,3192.01,2909.34,3262.57,600.25,602.88,38.99,0000 0000 0000 0000 000000
2016-10-31 12:04:19,0.01,0.91,0.00,17.47,22.79,26.45,14.82,49.67,1008.80,2050.72,3191.99,2909.09,3262.11,600.13,602.85,39.04,0000 0000 0000 0000 000000
2016-10-31 12:09:20,-0.00,0.91,0.00,17.49,22.79,26.47,14.84,49.54,1008.81,2050.67,3191.95,2909.05,3262.01,599.88,602.56,39.09,0000 0000 0000 0000 000000
2016-10-31 12:14:22,0.01,0.91,0.00,17.51,22.79,26.46,14.76,49.45,1008.81,2050.62,3191.38,2909.01,3262.00,599.92,602.57,39.14,0000 0000 0000 0000 000000
2016-10-31 12:19:23,-0.01,0.91,0.00,17.54,22.80,26.46,14.77,49.38,1008.80,2050.57,3191.03,2909.00,3261.96,599.48,602.26,39.19,0000 0000 0000 0000 000000
2016-10-31 12:24:25,0.00,0.91,0.00,17.51,22.82,26.48,14.92,49.65,1008.80,2050.32,3190.99,2909.00,3261.44,600.57,603.20,39.24,0000 0000 0000 0000 000000
2016-10-31 12:29:26,-0.00,0.91,0.00,17.53,22.82,26.50,14.91,49.49,1008.80,2050.26,3190.66,2909.00,3261.06,600.20,602.92,39.30,0000 0000 0000 0000 000000
2016-10-31 12:34:27,-0.00,0.91,0.00,17.56,22.82,26.47,14.85,49.72,1008.80,2050.11,3190.03,2908.97,3261.00,599.47,602.21,39.35,0000 0000 0000 0000 000000
2016-10-31 12:39:28,0.01,0.91,0.00,17.51,22.82,26.48,14.75,49.12,1008.81,2050.18,3190.00,2908.96,3260.97,599.77,602.38,39.40,0000 0000 0000 0000 000000
2016-10-31 12:44:29,0.01,0.91,0.00,17.51,22.84,26.47,14.91,49.63,1008.81,2050.13,3189.72,2908.81,3260.67,600.48,602.92,39.45,0000 0000 0000 0000 000000
2016-10-31 12:49:30,0.01,0.91,0.00,17.54,22.84,26.48,14.87,49.44,1008.81,2050.06,3189.11,2908.49,3260.10,600.36,602.85,39.50,0000 0000 0000 0000 000000
2016-10-31 12:54:31,0.01,0.91,0.00,17.59,22.84,26.50,14.85,49.18,1008.82,2050.06,3189.00,2908.20,3260.00,600.03,602.45,39.55,0000 0000 0000 0000 000000